Regional Weather Roundup
Issued by NWS Green Bay, WI

Home | Current Version | Previous Version | Text Only | Print | Product List | Glossary On
Versions: 1 2 3 4 5 6 7 8 9 10 11 12 13 14 15 16 17 18 19 20 21 22 23 24 25 26 27 28 29 30 31 32 33 34 35 36 37 38 39 40 41 42 43 44 45 46 47 48 49 50
000
ASUS43 KGRB 241811
RWRGRB

NORTH-CENTRAL AND NORTHEAST WISCONSIN REGIONAL WEATHER ROUNDUP
NATIONAL WEATHER SERVICE GREEN BAY WI
100 PM CDT FRI MAR 24 2017

WIZ005-009-010>012-018-019-241900-
NORTH CENTRAL WISCONSIN

CITY           SKY/WX    TMP DP  RH WIND       PRES   REMARKS
IRONWOOD       CLOUDY    34  33  96 N5        30.06R FOG
MANITOWISH WTR CLOUDY    33  33 100 NE6       30.02R FOG
ARBOR VITAE    CLOUDY    37  36  96 N8        30.00S FOG
EAGLE RIVER    CLOUDY    33  33 100 NE8       30.01R FOG
LAND O LAKES   CLOUDY    33  33 100 N6        30.03R FOG
RHINELANDER    LGT RAIN  36  35  96 N7        30.00R FOG
PHILLIPS       CLOUDY    35  35  99 N9        30.01S
ANTIGO         LGT RAIN  35  35 100 NE7       29.98R
TOMAHAWK       RAIN      35  33  92 N7        30.01R
MERRILL        LGT RAIN  37  37  99 NE7       29.99R
$$

WIZ013-073-241900-
NORTHEAST WISCONSIN

CITY           SKY/WX    TMP DP  RH WIND       PRES   REMARKS
IRON MOUNTAIN  LGT RAIN  36  32  85 N7        30.00S FOG
MARINETTE        N/A    N/A N/A N/A MISG        N/A
OCONTO         CLOUDY    36  35  94 N5        30.01R
$$

WIZ017-030-035>037-045-241900-
CENTRAL WISCONSIN

CITY           SKY/WX    TMP DP  RH WIND       PRES   REMARKS
MEDFORD        LGT RAIN  36  34  94 N7        29.98R
WAUSAU         LGT RAIN  38  36  92 NE6       29.96R
MOSINEE        CLOUDY    37  37 100 NE8       29.98R FOG
MARSHFIELD     LGT RAIN  38  37  97 NE8       29.97R FOG
WISC RAPIDS    LGT RAIN  38  38 100 E8        29.97R FOG
STEVENS POINT  RAIN      36  36 100 NE8       29.97R
WAUPACA        DRIZZLE   39  37  90 NE3       29.97S
SHAWANO        DRIZZLE   38  36  92 NE6       29.99F
CLINTONVILLE   LGT RAIN  36  34  93 NE8       29.99R
WAUTOMA        CLOUDY    40  37  89 NE10      29.96R
$$

WIZ038-039-048-051-241900-
FOX VALLEY

CITY           SKY/WX    TMP DP  RH WIND       PRES   REMARKS
NWS GREEN BAY  RAIN      38  37  97 NE13      29.99R FOG
APPLETON       CLOUDY    37  34  87 N14       29.95R FOG
OSHKOSH        CLOUDY    44  37  76 NE15      29.94S
FOND DU LAC    CLOUDY    47  39  74 NE15      29.94S
$$

WIZ022-050-052-241900-
EAST CENTRAL WISCONSIN

CITY           SKY/WX    TMP DP  RH WIND       PRES   REMARKS
EPHRAIM        RAIN      33  33 100 N8        30.00R VSB 3/4
WASHINGTON ISL LGT RAIN  34  33  98 N9        30.01R
STURGEON BAY   LGT RAIN  35  34  96 N10       30.02R FOG
MANITOWOC      CLOUDY    43  36  76 NE9       29.97R
SHEBOYGAN      PTSUNNY   50  42  74 NE14      29.94R
$$

LMZ563-521-522-541>543-241900-
LAKESHORE

STATION/POSITION TIME  TEMP    WIND        PRES    VSBY  WAVE
                       AIR SEA DIR/SP/G                  HT/PER
                 (UTC) (F)     (DEG/KT/KT) (MB)    (MI)  (FT/S)
SHEBOYGAN LKSHOR 1800   39      30/ 13/ 15 1014.6R
KEWAUNEE LKSHORE 1748   38      10/  5/ 10 1014.8R
NORTHPORT PIER   1740   33     330/  5/  7 1016.6R
SISTER BAY LKSHO 1720   35      30/ 11/ 15   N/A
CHAMBERS ISLAND  1740   34     350/  8/  9 1015.9R
MENOMINEE LKSHOR 1748   35     340/  8/  9 1015.6R
$$



USA.gov is the U.S. government's official web portal to all federal, state and local government web resources and services.